This demonstration page uses our WeatherBlox Daily Observations layout. Learn more.

Left ArrowRight Arrow

Hourly Observations for September 16, 2018

Temp ( °F °C ) Dew Point ( °F °C ) Humidity (%) Winds ( mph kmh ) Pressure ( in mb ) Visibility ( mi km ) Precip ( " mm )
12:54 am 00:54 Clear 71 21.7 66 18.9 84 84 S 8 13 30.02 1017 10 16 N/A
1:54 am 01:54 Clear 70 21.1 65 18.3 84 84 S 7 11 30.03 1017 10 16 N/A
2:54 am 02:54 Clear 69 20.6 64 17.8 84 84 S 5 7 30.03 1017 10 16 N/A
3:54 am 03:54 Clear 67 19.4 64 17.8 91 91 S 6 9 30.02 1017 10 16 N/A
4:54 am 04:54 Clear 67 19.4 64 17.8 91 91 SSE 3 6 30.01 1016 10 16 N/A
5:54 am 05:54 Clear 67 19.4 64 17.8 91 91 S 3 6 30.02 1017 10 16 N/A
6:54 am 06:54 Clear 66 18.9 64 17.8 93 93 S 3 6 30.03 1017 10 16 N/A
7:54 am 07:54 Sunny 67 19.4 64 17.8 91 91 SSE 3 6 30.03 1017 10 16 N/A
8:54 am 08:54 Sunny 73 22.8 66 18.9 79 79 S 6 9 30.03 1017 10 16 N/A
9:54 am 09:54 Sunny 78 25.6 68 20 71 71 S 8 13 30.02 1017 10 16 N/A
10:54 am 10:54 Sunny 83 28.3 68 20 61 61 S 13 20 30.01 1016 10 16 N/A
11:54 am 11:54 Mostly Sunny 85 29.4 69 20.6 59 59 S 14 22 29.99 1016 10 16 N/A
12:54 pm 12:54 Sunny 87 30.6 68 20 53 53 S 13 20 29.97 1015 10 16 N/A
1:54 pm 13:54 Mostly Sunny 89 31.7 67 19.4 48 48 S 16 26 29.94 1014 10 16 N/A
2:54 pm 14:54 Mostly Cloudy 89 31.7 66 18.9 47 47 S 15 24 29.91 1013 10 16 N/A
3:54 pm 15:54 Partly Cloudy 89 31.7 66 18.9 47 47 S 18 30 29.89 1012 10 16 N/A
4:54 pm 16:54 Sunny 88 31.1 66 18.9 48 48 S 15 24 29.88 1012 10 16 N/A
5:54 pm 17:54 Sunny 88 31.1 65 18.3 46 46 SSW 13 20 29.89 1012 10 16 N/A
6:54 pm 18:54 Mostly Cloudy 85 29.4 66 18.9 53 53 S 10 17 29.89 1012 10 16 N/A
7:54 pm 19:54 Clear 78 25.6 66 18.9 67 67 S 9 15 29.89 1012 10 16 N/A
8:54 pm 20:54 Clear 76 24.4 66 18.9 72 72 S 6 9 29.91 1013 10 16 N/A
9:54 pm 21:54 Clear 74 23.3 66 18.9 76 76 S 7 11 29.91 1013 10 16 N/A
10:54 pm 22:54 Clear 71 21.7 65 18.3 81 81 S 7 11 29.91 1013 10 16 N/A
11:54 pm 23:54 Clear 70 21.1 65 18.3 84 84 S 8 13 29.91 1013 10 16 N/A

Powered by AerisWeather